Location: Couloutre
(47.4081°N, 3.2259°E)
Time: 19:20:01
(UTC+00:00)

STARLINK-1063 - Pass Details

Date: 27 February 2020
Orbit: 549 x 550 km, 53.0° (Epoch: 06 April)

Event Time Altitude Azimuth Distance (km) Brightness Sun altitude
Rises 19:46:15 0° 258° (WSW) 2,713 8.2 -24.0°
Reaches altitude 10° 19:48:31 10° 263° (W) 1,821 7.2 -24.3°
Enters shadow 19:52:29 53° 335° (NNW) 678 4.2 -25.0°
